Aérodrome :
LOGIN :

S'inscrire | Disclaimer

   EN    FR    IT 

 










Légende :    VFR   VFR Marginal   IFR   IFR Intensif   IFR Très Intensif
Visi : 
Plafond : 
>= 8 km
>= 3000ft
5 à 8 km
1000 à 3000 ft
1500m à 5 km
500 à 1000 ft
800 à 1500m
200 à 500 ft
< 800m
< 200 ft
Symboles :   Orages  Brouillard  Fortes neiges  Fortes précipitations  Vent > 20 kt
SIGMETs :   Divers  Orages  Givrage  Turbulence  Onde Orograph.  Cendres Volcan.







- Altitude de l'aérodrome : 386 ft
- Code IATA : QOE


ETNN - Nörvenich Airforce Base

DERNIER METAR :
  • 242120Z 35010KT 9999 SCT023 BKN038 15/11 Q1023 BLU

METARs EXPIRÉS :
  • 242020Z 35003KT 9999 FEW020 BKN030 15/11 Q1023 BLU
  • 241920Z 04004KT 9999 -RA FEW025 BKN040 16/10 Q1022 BLU

TAF TAF ETNN
Valide du 24 à 20h jusqu'au 25 à 05h UTC


241905Z 2420/2505 33008KT 9999 NSW SCT020 BKN040
BECMG 2423/2501 30005KT 8000 NSW BKN015 BKN130
TEMPO 2500/2505 30005KT 6000 -RA BKN010 BKN100
PROB30 2502/2505 32003KT 3000 -DZ BKN005 OVC015 BY ETGL
Pas de NOTAMs connus pour ce terrain.



MET'MAP, la Météo Aéronautique d'un coup d'oeil ! - Copyright ORBIFLY Décembre 2007 - Disclaimer

ORBIFLY MET'MAP TEAM :

Programmation & Développement : Alexandra Zaïnal
Conception & Développement : Baudouin d'Aumeries
Co-Programmation & Développement : Marc-Olivier Méhu
Soutien technique & logistique : Manuel Goepfert

Contact : metmap@orbifly.com




SOURCES & CREDITS :

   NOAA